TimeCDT,TemperatureF,Dew PointF,Humidity,Sea Level PressureIn,VisibilityMPH,Wind Direction,Wind SpeedMPH,Gust SpeedMPH,PrecipitationIn,Events,Conditions,WindDirDegrees,DateUTC
12:15 AM,72.5,69.1,89,29.72,7.0,SSE,6.9,-,N/A,,Clear,150,2013-03-18 05:15:00
12:35 AM,71.6,68.9,91,29.72,7.0,SSE,5.8,-,N/A,,Clear,160,2013-03-18 05:35:00
12:55 AM,71.4,68.7,91,29.72,7.0,SSE,6.9,-,N/A,,Scattered Clouds,160,2013-03-18 05:55:00
1:15 AM,71.6,68.9,91,29.72,7.0,SSE,8.1,-,N/A,,Scattered Clouds,160,2013-03-18 06:15:00
1:35 AM,71.2,68.7,92,29.72,7.0,South,5.8,-,N/A,,Clear,170,2013-03-18 06:35:00
1:55 AM,70.7,68.2,92,29.72,5.0,South,5.8,-,N/A,,Clear,180,2013-03-18 06:55:00
2:15 AM,70.0,68.0,93,29.72,5.0,South,5.8,-,N/A,,Clear,180,2013-03-18 07:15:00
2:35 AM,69.1,67.3,94,29.72,5.0,South,3.5,-,N/A,,Clear,190,2013-03-18 07:35:00
2:55 AM,68.0,66.2,94,29.72,4.0,South,3.5,-,N/A,,Clear,170,2013-03-18 07:55:00
3:15 AM,67.5,66.2,96,29.71,3.0,South,4.6,-,N/A,,Overcast,170,2013-03-18 08:15:00
3:35 AM,68.5,67.1,95,29.71,4.0,South,6.9,-,N/A,,Overcast,170,2013-03-18 08:35:00
3:55 AM,69.1,67.5,95,29.70,4.0,SSE,8.1,-,N/A,,Overcast,150,2013-03-18 08:55:00
4:15 AM,68.9,67.1,94,29.70,4.0,South,11.5,-,N/A,,Overcast,170,2013-03-18 09:15:00
4:35 AM,68.9,67.1,94,29.70,4.0,South,11.5,-,N/A,,Overcast,170,2013-03-18 09:35:00
4:55 AM,68.9,66.7,93,29.70,5.0,SSE,10.4,-,N/A,,Overcast,160,2013-03-18 09:55:00
5:15 AM,68.7,66.7,93,29.69,5.0,SSE,10.4,-,N/A,,Overcast,150,2013-03-18 10:15:00
5:35 AM,68.4,66.2,93,29.70,5.0,SSE,13.8,-,N/A,,Overcast,160,2013-03-18 10:35:00
6:15 AM,68.2,66.2,93,29.71,5.0,SE,4.6,-,N/A,,Overcast,140,2013-03-18 11:15:00
6:35 AM,68.0,65.8,93,29.72,5.0,ESE,4.6,-,N/A,,Overcast,110,2013-03-18 11:35:00
6:55 AM,67.6,65.5,93,29.72,5.0,Calm,Calm,-,N/A,,Overcast,0,2013-03-18 11:55:00
7:15 AM,67.3,65.3,93,29.72,4.0,Calm,Calm,-,N/A,,Overcast,0,2013-03-18 12:15:00
7:35 AM,67.5,65.3,93,29.74,5.0,SSE,5.8,-,N/A,,Overcast,160,2013-03-18 12:35:00
7:55 AM,67.6,65.5,93,29.76,3.0,South,3.5,-,N/A,,Overcast,170,2013-03-18 12:55:00
8:15 AM,68.0,65.7,92,29.76,3.0,Calm,Calm,-,N/A,,Overcast,0,2013-03-18 13:15:00
8:35 AM,68.5,65.8,91,29.79,4.0,NNW,3.5,-,N/A,,Overcast,330,2013-03-18 13:35:00
8:55 AM,69.1,65.8,89,29.80,4.0,NNW,4.6,-,N/A,,Overcast,330,2013-03-18 13:55:00
9:15 AM,69.8,66.0,88,29.81,5.0,North,3.5,-,N/A,,Overcast,360,2013-03-18 14:15:00
9:35 AM,70.2,65.3,85,29.81,5.0,Calm,Calm,-,N/A,,Overcast,0,2013-03-18 14:35:00
9:55 AM,72.0,65.5,80,29.82,7.0,NNW,3.5,-,N/A,,Mostly Cloudy,330,2013-03-18 14:55:00
10:15 AM,73.0,65.5,77,29.80,7.0,ESE,3.5,-,N/A,,Scattered Clouds,120,2013-03-18 15:15:00
10:35 AM,74.8,65.3,72,29.81,7.0,NE,3.5,-,N/A,,Clear,40,2013-03-18 15:35:00
10:55 AM,76.1,65.3,69,29.81,7.0,Calm,Calm,-,N/A,,Clear,0,2013-03-18 15:55:00
11:15 AM,77.4,65.1,66,29.81,7.0,Calm,Calm,-,N/A,,Clear,0,2013-03-18 16:15:00
11:35 AM,79.5,65.1,61,29.81,10.0,North,4.6,-,N/A,,Clear,360,2013-03-18 16:35:00
11:55 AM,81.1,63.7,55,29.81,10.0,WNW,8.1,-,N/A,,Clear,290,2013-03-18 16:55:00
12:15 PM,82.4,63.7,53,29.81,10.0,NW,5.8,-,N/A,,Clear,320,2013-03-18 17:15:00
12:35 PM,84.0,63.5,50,29.81,10.0,West,3.5,-,N/A,,Clear,280,2013-03-18 17:35:00
12:55 PM,86.0,62.1,44,29.80,10.0,NW,9.2,-,N/A,,Clear,310,2013-03-18 17:55:00
1:15 PM,87.4,61.5,42,29.79,10.0,NW,9.2,-,N/A,,Clear,310,2013-03-18 18:15:00
1:35 PM,88.7,61.3,40,29.79,10.0,WNW,3.5,-,N/A,,Clear,300,2013-03-18 18:35:00
1:55 PM,90.7,57.7,33,29.78,10.0,North,11.5,-,N/A,,Clear,360,2013-03-18 18:55:00
2:15 PM,93.2,55.6,28,29.77,10.0,North,8.1,17.3,N/A,,Clear,350,2013-03-18 19:15:00
2:35 PM,93.9,53.4,25,29.75,10.0,North,16.1,20.7,N/A,,Clear,360,2013-03-18 19:35:00
2:55 PM,95.2,51.3,22,29.75,10.0,NNW,12.7,19.6,N/A,,Clear,340,2013-03-18 19:55:00
3:15 PM,96.6,49.5,20,29.74,10.0,NNW,12.7,18.4,N/A,,Clear,340,2013-03-18 20:15:00
3:35 PM,98.4,42.4,15,29.73,10.0,North,15.0,24.2,N/A,,Scattered Clouds,350,2013-03-18 20:35:00
3:55 PM,98.1,40.3,14,29.72,10.0,North,9.2,21.9,N/A,,Clear,350,2013-03-18 20:55:00
4:15 PM,98.2,37.8,12,29.72,10.0,NNW,9.2,23.0,N/A,,Scattered Clouds,340,2013-03-18 21:15:00
4:35 PM,98.8,36.7,12,29.72,10.0,North,13.8,-,N/A,,Clear,350,2013-03-18 21:35:00
4:55 PM,98.6,35.2,11,29.72,10.0,NNW,9.2,18.4,N/A,,Scattered Clouds,330,2013-03-18 21:55:00
5:15 PM,98.8,34.7,11,29.72,10.0,NNW,9.2,17.3,N/A,,Scattered Clouds,330,2013-03-18 22:15:00
5:35 PM,98.8,34.2,10,29.71,10.0,NNW,6.9,-,N/A,,Scattered Clouds,330,2013-03-18 22:35:00
5:55 PM,99.1,34.7,11,29.71,10.0,North,10.4,-,N/A,,Clear,360,2013-03-18 22:55:00
6:15 PM,98.8,33.3,10,29.72,10.0,WNW,8.1,-,N/A,,Scattered Clouds,300,2013-03-18 23:15:00
6:35 PM,98.1,33.6,10,29.72,10.0,NNW,6.9,-,N/A,,Scattered Clouds,340,2013-03-18 23:35:00
6:55 PM,97.3,34.3,11,29.73,10.0,NW,5.8,-,N/A,,Scattered Clouds,320,2013-03-18 23:55:00
7:15 PM,96.1,34.2,11,29.73,10.0,NW,4.6,-,N/A,,Scattered Clouds,320,2013-03-19 00:15:00
7:35 PM,94.1,34.7,12,29.73,10.0,NNW,4.6,-,N/A,,Scattered Clouds,330,2013-03-19 00:35:00
7:55 PM,92.5,34.9,13,29.74,10.0,NNW,3.5,-,N/A,,Mostly Cloudy,340,2013-03-19 00:55:00
8:15 PM,86.4,64.0,47,29.76,10.0,East,8.1,-,N/A,,Overcast,90,2013-03-19 01:15:00
8:35 PM,83.8,66.4,56,29.77,10.0,East,6.9,-,N/A,,Overcast,100,2013-03-19 01:35:00
8:55 PM,81.7,66.9,61,29.78,10.0,East,6.9,-,N/A,,Mostly Cloudy,100,2013-03-19 01:55:00
9:15 PM,80.1,67.1,64,29.78,10.0,ESE,5.8,-,N/A,,Mostly Cloudy,120,2013-03-19 02:15:00
9:35 PM,78.6,67.8,69,29.79,10.0,ESE,4.6,-,N/A,,Mostly Cloudy,120,2013-03-19 02:35:00
9:55 PM,77.2,68.4,74,29.81,10.0,ESE,4.6,-,N/A,,Clear,120,2013-03-19 02:55:00
10:15 PM,75.9,68.4,77,29.81,10.0,ESE,3.5,-,N/A,,Clear,110,2013-03-19 03:15:00
10:35 PM,74.3,68.4,82,29.82,10.0,East,3.5,-,N/A,,Clear,100,2013-03-19 03:35:00
10:55 PM,73.2,68.2,84,29.82,10.0,Calm,Calm,-,N/A,,Clear,0,2013-03-19 03:55:00
11:15 PM,72.9,68.0,85,29.83,7.0,Calm,Calm,-,N/A,,Clear,0,2013-03-19 04:15:00
11:35 PM,71.1,67.5,88,29.84,7.0,East,3.5,-,N/A,,Clear,80,2013-03-19 04:35:00